timestamp,surface_pressure_avg,surface_temp_avg,battery_voltage,lat,long
2021-07-11 00:09:01+00:00,357.2512,13.5,12.81,47.84626,-54.09684
2021-07-11 00:19:01+00:00,356.2846,13.5,12.73,47.84626,-54.09684
2021-07-11 00:29:01+00:00,354.2796,13.5,12.73,47.84626,-54.09684
2021-07-11 00:39:01+00:00,354.2079,13.5,12.73,47.84626,-54.09684
2021-07-11 00:49:01+00:00,354.0896,13.5,12.73,47.84626,-54.09684
2021-07-11 00:59:01+00:00,349.7812,13.5,12.73,47.84626,-54.09684
2021-07-11 01:09:01+00:00,346.9797,13.5,12.73,47.84626,-54.09684
2021-07-11 01:19:01+00:00,347.0447,13.5,12.73,47.84626,-54.09684
2021-07-11 01:29:01+00:00,345.0046,13.5,12.73,47.84626,-54.09684
2021-07-11 01:39:01+00:00,340.903,13.5,12.73,47.84626,-54.09684
2021-07-11 01:49:01+00:00,336.2646,13.5,12.73,47.84626,-54.09684
2021-07-11 01:59:01+00:00,333.4597,13.49,12.73,47.84626,-54.09684
2021-07-11 02:09:01+00:00,326.6097,13.46,12.73,47.84626,-54.09684
2021-07-11 02:19:01+00:00,321.0179,13.44,12.65,47.84626,-54.09684
2021-07-11 02:29:01+00:00,319.563,13.4,12.65,47.84626,-54.09684
2021-07-11 02:39:01+00:00,315.423,13.4,12.65,47.84626,-54.09684
2021-07-11 02:49:01+00:00,307.4597,13.4,12.65,47.84626,-54.09684
2021-07-11 02:59:01+00:00,298.0997,13.4,12.65,47.84626,-54.09684
2021-07-11 03:09:01+00:00,288.7463,13.4,12.65,47.84626,-54.09684
2021-07-11 03:19:01+00:00,282.028,13.4,12.65,47.84626,-54.09684
2021-07-11 03:29:01+00:00,277.9581,13.4,12.65,47.84626,-54.09684
2021-07-11 03:39:01+00:00,275.0131,13.4,12.65,47.84626,-54.09684
2021-07-11 03:49:01+00:00,264.6564,13.4,12.65,47.84626,-54.09684
2021-07-11 03:59:01+00:00,254.4047,13.4,12.65,47.84626,-54.09684
2021-07-11 04:09:01+00:00,249.9997,13.4,12.65,47.84626,-54.09684
2021-07-11 04:19:01+00:00,246.8847,13.4,12.65,47.84626,-54.09684
2021-07-11 04:29:01+00:00,239.4164,13.4,12.65,47.84626,-54.09684
2021-07-11 04:39:01+00:00,229.9081,13.4,12.65,47.84626,-54.09684
2021-07-11 04:49:01+00:00,222.5781,13.4,12.65,47.84626,-54.09684
2021-07-11 04:59:01+00:00,214.6831,13.4,12.65,47.84626,-54.09684
2021-07-11 05:09:01+00:00,205.7598,13.4,12.65,47.84626,-54.09684
2021-07-11 05:19:00+00:00,199.1014,13.4,12.65,47.84626,-54.09684
2021-07-11 05:29:00+00:00,193.8448,13.4,12.65,47.84626,-54.09684
2021-07-11 05:39:00+00:00,188.3581,13.4,12.65,47.84626,-54.09684
2021-07-11 05:49:00+00:00,186.5731,13.4,12.65,47.84626,-54.09684
2021-07-11 05:59:00+00:00,187.6664,13.4,12.65,47.84626,-54.09684
2021-07-11 06:09:00+00:00,185.3664,13.4,12.65,47.84626,-54.09684
2021-07-11 06:19:00+00:00,181.4331,13.4,12.57,47.84626,-54.09684
2021-07-11 06:29:00+00:00,181.7598,13.4,12.57,47.84626,-54.09684
2021-07-11 06:39:00+00:00,185.8381,13.4,12.57,47.84626,-54.09684
2021-07-11 06:49:00+00:00,185.1231,13.4,12.57,47.84626,-54.09684
2021-07-11 06:59:00+00:00,182.0698,13.4,12.57,47.84626,-54.09684
2021-07-11 07:09:00+00:00,185.3782,13.4,12.57,47.84626,-54.09684
2021-07-11 07:19:00+00:00,189.1832,13.4,12.57,47.84626,-54.09684
2021-07-11 07:29:00+00:00,191.5315,13.41,12.57,47.84626,-54.09684
2021-07-11 07:39:00+00:00,197.6031,13.44,12.57,47.84626,-54.09684
2021-07-11 07:49:00+00:00,206.3981,13.4,12.57,47.84626,-54.09684
2021-07-11 07:59:00+00:00,211.8465,13.4,12.57,47.84626,-54.09684
2021-07-11 08:09:00+00:00,216.2798,13.4,12.57,47.84626,-54.09684
2021-07-11 08:19:00+00:00,220.5364,13.4,12.57,47.84626,-54.09684
2021-07-11 08:29:00+00:00,226.2015,13.41,12.57,47.84626,-54.09684
2021-07-11 08:39:00+00:00,230.8348,13.4,12.57,47.84626,-54.09684
2021-07-11 08:49:00+00:00,236.3765,13.4,12.57,47.84626,-54.09684
2021-07-11 08:59:00+00:00,239.2231,13.4,12.57,47.84626,-54.09684
2021-07-11 09:09:00+00:00,243.0081,13.4,12.57,47.84626,-54.09684
2021-07-11 09:19:00+00:00,249.3081,13.4,12.57,47.84626,-54.09684
2021-07-11 09:29:00+00:00,256.0014,13.4,12.57,47.84626,-54.09684
2021-07-11 09:39:00+00:00,263.6864,13.4,12.57,47.84626,-54.09684
2021-07-11 09:49:00+00:00,268.163,13.4,12.57,47.84626,-54.09684
2021-07-11 09:59:00+00:00,272.5847,13.4,12.57,47.84626,-54.09684
2021-07-11 10:09:00+00:00,278.1147,13.4,12.57,47.84626,-54.09684
2021-07-11 10:19:00+00:00,287.928,13.4,12.65,47.84626,-54.09684
2021-07-11 10:29:00+00:00,290.4447,13.39,12.65,47.84626,-54.09684
2021-07-11 10:39:00+00:00,296.8631,13.39,12.65,47.84626,-54.09684
2021-07-11 10:49:00+00:00,307.9813,13.39,12.65,47.84626,-54.09684
2021-07-11 10:59:00+00:00,315.2297,13.39,12.65,47.84626,-54.09684
2021-07-11 11:09:00+00:00,316.688,13.38,12.65,47.84626,-54.09684
2021-07-11 11:19:00+00:00,325.2963,13.38,12.81,47.84626,-54.09684
2021-07-11 11:29:00+00:00,327.2563,13.38,12.81,47.84626,-54.09684
2021-07-11 11:39:00+00:00,324.1379,13.38,12.81,47.84626,-54.09684
2021-07-11 11:49:00+00:00,326.2247,13.4,12.81,47.84626,-54.09684
2021-07-11 11:59:00+00:00,334.8463,13.4,12.81,47.84626,-54.09684
2021-07-11 12:09:00+00:00,334.3962,13.4,12.81,47.84626,-54.09684
2021-07-11 12:19:00+00:00,329.663,13.48,13.13,47.84626,-54.09684
2021-07-11 12:29:00+00:00,333.9413,13.5,13.13,47.84626,-54.09684
2021-07-11 12:39:00+00:00,333.6230000000001,13.5,13.13,47.84626,-54.09684
2021-07-11 12:49:00+00:00,329.1896,13.53,13.13,47.84626,-54.09684
2021-07-11 12:59:00+00:00,332.4547,13.59,13.13,47.84626,-54.09684
2021-07-11 13:09:00+00:00,334.9663,13.58,13.13,47.84626,-54.09684
2021-07-11 13:19:00+00:00,324.1912,13.6,13.84,47.84626,-54.09684
2021-07-11 13:29:00+00:00,315.2363,13.7,13.84,47.84626,-54.09684
2021-07-11 13:39:00+00:00,316.728,13.7,13.84,47.84626,-54.09684
2021-07-11 13:49:00+00:00,319.668,13.7,13.84,47.84626,-54.09684
2021-07-11 13:59:00+00:00,313.2714,13.7,13.84,47.84626,-54.09684
2021-07-11 14:09:00+00:00,311.368,13.76,13.84,47.84626,-54.09684
2021-07-11 14:19:01+00:00,309.6413,13.74,14.16,47.84626,-54.09684
2021-07-11 14:29:01+00:00,305.1797,13.8,14.16,47.84626,-54.09684
2021-07-11 14:39:01+00:00,298.8047,13.9,14.16,47.84626,-54.09684
2021-07-11 14:49:01+00:00,295.7663,13.9,14.16,47.84626,-54.09684
2021-07-11 14:59:01+00:00,289.5181,13.9,14.16,47.84626,-54.09684
2021-07-11 15:09:01+00:00,282.5447,13.9,14.16,47.84626,-54.09684
2021-07-11 15:19:01+00:00,279.9914,13.9,14.16,47.84626,-54.09684
2021-07-11 15:29:01+00:00,272.7197,13.87,14.16,47.84626,-54.09684
2021-07-11 15:39:01+00:00,262.2931,13.9,14.16,47.84626,-54.09684
2021-07-11 15:49:01+00:00,255.6747,14.0,14.16,47.84626,-54.09684
2021-07-11 15:59:01+00:00,254.3197,14.01,14.16,47.84626,-54.09684
2021-07-11 16:09:01+00:00,246.173,14.0,14.16,47.84626,-54.09684
2021-07-11 16:19:01+00:00,235.6414,14.07,14.24,47.84626,-54.09684
2021-07-11 16:29:01+00:00,232.1647,14.09,14.24,47.84626,-54.09684
2021-07-11 16:39:01+00:00,229.7814,14.06,14.24,47.84626,-54.09684
2021-07-11 16:49:01+00:00,220.6498,14.07,14.24,47.84626,-54.09684
2021-07-11 16:59:01+00:00,210.8931,14.1,14.24,47.84626,-54.09684
2021-07-11 17:09:01+00:00,210.9864,14.12,14.24,47.84626,-54.09684
2021-07-11 17:19:01+00:00,210.9915,14.13,14.16,47.84626,-54.09684
2021-07-11 17:29:01+00:00,201.8748,14.14,14.16,47.84626,-54.09684
2021-07-11 17:39:01+00:00,192.4114,14.17,14.16,47.84626,-54.09684
2021-07-11 17:49:01+00:00,191.5865,14.19,14.16,47.84626,-54.09684
2021-07-11 17:59:01+00:00,190.3082,14.19,14.16,47.84626,-54.09684
2021-07-11 18:09:01+00:00,184.5048,14.17,14.16,47.84626,-54.09684
2021-07-11 18:19:01+00:00,184.9698,14.14,14.0,47.84626,-54.09684
2021-07-11 18:29:01+00:00,190.4548,14.1,14.0,47.84626,-54.09684
2021-07-11 18:39:01+00:00,191.5698,14.1,14.0,47.84626,-54.09684
2021-07-11 18:49:01+00:00,189.4748,14.1,14.0,47.84626,-54.09684
2021-07-11 18:59:01+00:00,191.1348,14.1,14.0,47.84626,-54.09684
2021-07-11 19:09:01+00:00,194.8265,14.1,14.0,47.84626,-54.09684
2021-07-11 19:19:01+00:00,197.1831,14.09,13.92,47.84626,-54.09684
2021-07-11 19:29:01+00:00,198.5898,14.08,13.92,47.84626,-54.09684
2021-07-11 19:39:01+00:00,201.9164,14.03,13.92,47.84626,-54.09684
2021-07-11 19:49:01+00:00,209.3548,14.0,13.92,47.84626,-54.09684
2021-07-11 19:59:01+00:00,215.9081,14.0,13.92,47.84626,-54.09684
2021-07-11 20:09:01+00:00,217.4247,14.0,13.92,47.84626,-54.09684
2021-07-11 20:19:01+00:00,219.0065,14.0,13.84,47.84626,-54.09684
2021-07-11 20:29:01+00:00,222.7448,14.0,13.84,47.84626,-54.09684
2021-07-11 20:39:01+00:00,229.7148,14.0,13.84,47.84626,-54.09684
2021-07-11 20:49:01+00:00,234.8481,13.96,13.84,47.84626,-54.09684
2021-07-11 20:59:01+00:00,238.9764,13.9,13.84,47.84626,-54.09684
2021-07-11 21:09:01+00:00,246.4214,13.7,13.84,47.84626,-54.09684
2021-07-11 21:19:01+00:00,252.1198,13.6,13.68,47.84626,-54.09684
2021-07-11 21:29:01+00:00,254.3814,13.6,13.68,47.84626,-54.09684
2021-07-11 21:39:01+00:00,260.3531,13.59,13.68,47.84626,-54.09684
2021-07-11 21:49:01+00:00,267.2914,13.6,13.68,47.84626,-54.09684
2021-07-11 21:59:01+00:00,271.1931,13.53,13.68,47.84626,-54.09684
2021-07-11 22:09:01+00:00,275.0997,13.5,13.68,47.84626,-54.09684
2021-07-11 22:19:01+00:00,282.8414,13.5,13.44,47.84626,-54.09684
2021-07-11 22:29:01+00:00,287.168,13.5,13.44,47.84626,-54.09684
2021-07-11 22:39:01+00:00,286.613,13.3,13.44,47.84626,-54.09684
2021-07-11 22:49:01+00:00,289.4614,13.3,13.44,47.84626,-54.09684
2021-07-11 22:59:01+00:00,298.6063,13.3,13.44,47.84626,-54.09684
2021-07-11 23:09:01+00:00,306.7646,13.3,13.44,47.84626,-54.09684
2021-07-11 23:19:01+00:00,317.0347,13.3,13.21,47.84626,-54.09684
2021-07-11 23:29:01+00:00,325.598,13.2,13.21,47.84626,-54.09684
2021-07-11 23:39:01+00:00,332.648,13.1,13.21,47.84626,-54.09684
2021-07-11 23:49:01+00:00,334.6163,13.1,13.21,47.84626,-54.09684
2021-07-11 23:59:01+00:00,337.5680000000001,13.2,13.21,47.84626,-54.09684
